Change the Weather History Date:

Monday, October 1, 2012

  Actual Average Record
Temperature  
Mean Temperature 69 °F -  
Max Temperature 78 °F 73 °F 80 °F (2013)
Min Temperature 60 °F 60 °F 59 °F (1997)
Cooling Degree Days 4    
Growing Degree Days 19 (Base 50)    
Moisture  
Dew Point 54 °F    
Average Humidity 64    
Maximum Humidity 94    
Minimum Humidity 34    
Precipitation  
Precipitation 0.00 in - - ()
Sea Level Pressure  
Sea Level Pressure 30.17 in    
Wind  
Wind Speed 5 mph ()    
Max Wind Speed 20 mph    
Max Gust Speed -    
Visibility 6.2 miles    
Events      
Averages and records for this station are not official NWS values.
T = Trace of Precipitation, MM = Missing Value Source: Averaged Metar Reports

Daily Weather History Graph

Daily Weather History Graph

Search for Another Location

Airport or City:

Trip Planner

Search our weather history database for the weather conditions in past years. The results will help you decide how hot, cold, wet, or windy it might be!

Date:

Astronomy

Oct. 01, 2012 Rise Set
Actual Time 6:18 AM EAT 6:25 PM EAT
Civil Twilight 5:58 AM EAT 6:46 PM EAT
Nautical Twilight 5:34 AM EAT 7:10 PM EAT
Astronomical Twilight 5:09 AM EAT 7:34 PM EAT
Moon 7:25 PM EAT (10/1) 6:59 AM EAT (10/1)
Length of Visible Light 12h 48m
Length of Day
12h 07m
Full, 99% of the Moon is Illuminated
Oct 1
Full
Oct 8
Last Quarter
Oct 15
New
Oct 22
First Quarter
Oct 29
Full

Hourly Weather History & Observations

Time (EAT) Temp. Dew Point Humidity Pressure Visibility Wind Dir Wind Speed Gust Speed Precip Events Conditions
12:00 AM 64.4 °F 53.6 °F 68% 30.18 in 6.2 mi Calm Calm - N/A   Partly Cloudy
1:00 AM 64.4 °F 53.6 °F 68% 30.15 in 6.2 mi Calm Calm - N/A   Partly Cloudy
2:00 AM 62.6 °F 57.2 °F 82% 30.15 in 6.2 mi Calm Calm - N/A   Scattered Clouds
3:00 AM 60.8 °F 59.0 °F 94% 30.12 in 6.2 mi NE 5.8 mph - N/A   Scattered Clouds
4:00 AM 60.8 °F 59.0 °F 94% 30.15 in 6.2 mi ENE 6.9 mph - N/A   Scattered Clouds
5:00 AM 60.8 °F 59.0 °F 94% 30.15 in 6.2 mi ENE 9.2 mph - N/A   Mostly Cloudy
6:00 AM 60.8 °F 57.2 °F 88% 30.12 in 6.2 mi Calm Calm - N/A   Mostly Cloudy
7:00 AM 60.8 °F 57.2 °F 88% 30.18 in 6.2 mi Calm Calm - N/A   Mostly Cloudy
8:00 AM 62.6 °F 57.2 °F 82% 30.24 in 6.2 mi Calm Calm - N/A   Mostly Cloudy
9:00 AM 64.4 °F 57.2 °F 77% 30.27 in 6.2 mi SSE 3.5 mph - N/A   Mostly Cloudy
10:00 AM 69.8 °F 53.6 °F 56% 30.27 in 6.2 mi ESE 9.2 mph - N/A   Scattered Clouds
11:00 AM 71.6 °F 51.8 °F 50% 30.24 in 6.2 mi ENE 6.9 mph - N/A   Partly Cloudy
12:00 PM 75.2 °F 48.2 °F 38% 30.24 in 6.2 mi SSE 11.5 mph - N/A   Partly Cloudy
1:00 PM 77.0 °F 48.2 °F 36% 30.18 in 6.2 mi SSE 19.6 mph - N/A   Scattered Clouds
2:00 PM 78.8 °F 48.2 °F 34% 30.15 in 6.2 mi East 8.1 mph - N/A   Scattered Clouds
3:00 PM 78.8 °F 48.2 °F 34% 30.12 in 6.2 mi ESE 9.2 mph - N/A   Scattered Clouds
4:00 PM 78.8 °F 48.2 °F 34% 30.12 in 6.2 mi East 9.2 mph - N/A   Scattered Clouds
5:00 PM 78.8 °F 48.2 °F 34% 30.12 in 6.2 mi East 13.8 mph - N/A   Unknown
6:00 PM 77.0 °F 48.2 °F 36% 30.12 in 6.2 mi ESE 18.4 mph - N/A   Partly Cloudy
7:00 PM 71.6 °F 55.4 °F 57% 30.15 in 6.2 mi ESE 15.0 mph - N/A   Partly Cloudy
9:00 PM 66.2 °F 55.4 °F 68% 30.18 in - SSE 6.9 mph - N/A   Clear
10:00 PM 64.4 °F 53.6 °F 68% 30.21 in - SSW 8.1 mph - N/A   Clear
11:00 PM 60.8 °F 55.4 °F 82% 30.21 in 6.2 mi South 6.9 mph - N/A   Mostly Cloudy